Hollywood, FL

6:26 PM EDT on October 22, 2019 (GMT -0400)
North Perry

Weather History for KHWO - August, 2019

Change the Weather History Date:

Monday, August 26, 2019

  Actual Average (KFLL) Record (KFLL)
Temperature  
Mean Temperature 85 °F 84 °F  
Max Temperature 90 °F 90 °F 96 °F (1954)
Min Temperature 80 °F 78 °F 69 °F (1927)
Degree Days  
Heating Degree Days 0 0  
Month to date heating degree days 0  
Since 1 June heating degree days 0  
Since 1 July heating degree days 0  
Cooling Degree Days 20 19  
Month to date cooling degree days 513  
Year to date cooling degree days 3072  
Since 1 June cooling degree days 1654  
Growing Degree Days 35 (Base 50)    
Moisture  
Dew Point 76 °F    
Average Humidity 78    
Maximum Humidity 88    
Minimum Humidity 61    
Precipitation  
Precipitation 0.41 in 0.25 in 4.06 in (1966)
Month to date precipitation 6.08  
Year to date precipitation 39.71  
Snow  
Snow 0.00 in - - ()
Month to date snowfall  
Since 1 June snowfall  
Since 1 July snowfall  
Snow Depth -    
Sea Level Pressure  
Sea Level Pressure 29.98 in    
Wind  
Wind Speed 3 mph (SW)    
Max Wind Speed 12 mph    
Max Gust Speed 25 mph    
Visibility 9 miles    
Events Rain , Thunderstorm    
T = Trace of Precipitation, MM = Missing Value Source: NWS Daily Summary

Daily Weather History Graph

Daily Weather History Graph

Search for Another Location

Airport or City:

Astronomy

Aug. 26, 2019 Rise Set
Actual Time 6:58 AM EDT 7:46 PM EDT
Civil Twilight 6:34 AM EDT 8:10 PM EDT
Nautical Twilight 6:07 AM EDT 8:38 PM EDT
Astronomical Twilight 5:38 AM EDT 9:06 PM EDT
Moon 2:42 AM EDT (8/26) 4:47 PM EDT (8/26)
Length of Visible Light 13h 35m
Length of Day
12h 48m
Waning Crescent, 19% of the Moon is Illuminated
Aug 26
Waning Crescent
Aug 30
New
Sep 5
First Quarter
Sep 14
Full
Sep 21
Last Quarter

Hourly Weather History & Observations

Time (EDT) Temp. Heat Index Dew Point Humidity Pressure Visibility Wind Dir Wind Speed Gust Speed Precip Events Conditions
12:53 AM 82.0 °F 89.4 °F 75.9 °F 82% 29.97 in 10.0 mi Calm Calm - N/A   Clear
1:53 AM 82.0 °F 90.2 °F 77.0 °F 85% 29.96 in 10.0 mi Calm Calm - N/A   Clear
2:53 AM 81.0 °F 87.9 °F 77.0 °F 88% 29.96 in 10.0 mi Calm Calm - N/A   Clear
3:53 AM 81.0 °F 87.9 °F 77.0 °F 88% 29.94 in 10.0 mi Calm Calm - N/A   Clear
4:53 AM 80.1 °F 85.4 °F 75.9 °F 87% 29.94 in 10.0 mi Calm Calm - N/A   Clear
5:53 AM 81.0 °F 87.9 °F 77.0 °F 88% 29.95 in 10.0 mi SSE 3.5 mph - N/A   Clear
6:53 AM 81.0 °F 87.9 °F 77.0 °F 88% 29.96 in 10.0 mi Calm Calm - N/A   Clear
7:53 AM 82.0 °F 91.0 °F 78.1 °F 88% 29.98 in 10.0 mi Calm Calm - N/A   Partly Cloudy
9:38 AM 87.1 °F 98.8 °F 77.0 °F 72% 29.99 in 10.0 mi SSW 6.9 mph - N/A   Mostly Cloudy
9:53 AM 88.0 °F 100.2 °F 77.0 °F 70% 29.99 in 10.0 mi SSW 6.9 mph - N/A Thunderstorm Mostly Cloudy
10:12 AM 88.0 °F 101.3 °F 78.1 °F 72% 30.00 in 10.0 mi SW 4.6 mph - N/A   Mostly Cloudy
10:28 AM 90.0 °F 101.3 °F 75.9 °F 63% 30.00 in 10.0 mi West 4.6 mph - N/A Thunderstorm Scattered Clouds
10:53 AM 90.0 °F 100.2 °F 75.0 °F 61% 30.00 in 10.0 mi SSW 9.2 mph - N/A Thunderstorm Thunderstorm
11:06 AM 84.0 °F 91.2 °F 73.9 °F 72% 30.00 in 2.5 mi SSE 6.9 mph 19.6 mph 0.12 in Rain Heavy Rain
11:08 AM 82.9 °F 89.4 °F 73.9 °F 74% 30.01 in 1.8 mi Variable 3.5 mph - 0.17 in Rain , Thunderstorm Heavy Rain
11:13 AM 82.0 °F 87.9 °F 73.9 °F 76% 30.00 in 4.0 mi Calm Calm - 0.22 in Rain , Thunderstorm Heavy Thunderstorms and Rain
11:34 AM 87.1 °F 98.8 °F 77.0 °F 72% 30.00 in 4.0 mi NNE 8.1 mph - 0.22 in Thunderstorm Haze
11:53 AM 88.0 °F 100.2 °F 77.0 °F 70% 30.01 in 10.0 mi NNE 10.4 mph - 0.22 in   Partly Cloudy
12:18 PM 84.0 °F 93.7 °F 77.0 °F 79% 30.01 in 7.0 mi North 10.4 mph - 0.03 in Rain , Thunderstorm Light Rain
12:38 PM 80.1 °F 84.5 °F 73.9 °F 81% 30.00 in 4.0 mi WNW 11.5 mph 25.3 mph 0.07 in Rain , Thunderstorm Thunderstorms and Rain
12:53 PM 80.1 °F 84.2 °F 73.0 °F 79% 30.00 in 5.0 mi WNW 3.5 mph - 0.18 in Rain , Thunderstorm Heavy Thunderstorms and Rain
12:55 PM 80.1 °F 84.2 °F 73.0 °F 79% 30.00 in 2.5 mi WNW 8.1 mph - 0.00 in Rain , Thunderstorm Rain
1:32 PM 81.0 °F 87.3 °F 75.9 °F 85% 30.00 in 10.0 mi Calm Calm - 0.01 in Thunderstorm Thunderstorm
1:53 PM 82.0 °F 89.4 °F 75.9 °F 82% 29.99 in 10.0 mi West 3.5 mph - 0.01 in   Clear
2:42 PM 80.1 °F 84.5 °F 73.9 °F 81% 29.98 in 10.0 mi SSE 4.6 mph - N/A Thunderstorm Thunderstorm
2:53 PM 81.0 °F 86.7 °F 75.0 °F 82% 29.98 in 10.0 mi SSE 3.5 mph - N/A   Clear
3:53 PM 82.9 °F 89.4 °F 73.9 °F 74% 29.98 in 10.0 mi Calm Calm - 0.00 in Rain Light Rain
4:53 PM 84.0 °F 91.9 °F 75.0 °F 74% 29.96 in 10.0 mi South 3.5 mph - 0.00 in   Scattered Clouds
5:53 PM 84.9 °F 93.3 °F 75.0 °F 72% 29.95 in 10.0 mi SSE 3.5 mph - N/A   Clear
6:53 PM 84.9 °F 93.3 °F 75.0 °F 72% 29.95 in 10.0 mi Calm Calm - N/A   Clear
7:53 PM 84.0 °F 91.9 °F 75.0 °F 74% 29.96 in 10.0 mi Calm Calm - N/A   Clear
8:53 PM 84.0 °F 92.6 °F 75.9 °F 76% 29.98 in 10.0 mi Calm Calm - N/A   Clear
9:53 PM 82.9 °F 90.8 °F 75.9 °F 79% 30.01 in 10.0 mi Calm Calm - N/A   Clear
10:53 PM 82.9 °F 91.8 °F 77.0 °F 82% 30.02 in 10.0 mi Calm Calm - N/A   Partly Cloudy
11:53 PM 82.0 °F 90.2 °F 77.0 °F 85% 30.03 in 10.0 mi Calm Calm - N/A   Clear